Location: Akho
(42.3047°N, 44.1844°E)
Time: 06:07:49
(UTC+00:00)

STARLINK-45 - Pass Details

Date: 07 June 2020
Orbit: 433 x 435 km, 53.0° (Epoch: 05 July)

Event Time Altitude Azimuth Distance (km) Brightness Sun altitude
Exits shadow 23:07:40 31° 137° (SE) 793 4.2 -18.8°
Drops below altitude 10° 23:10:49 10° 71° (ENE) 1,542 6.6 -18.5°
Enters shadow 00:05:19 -73° 235° (SW) 12,613 10.4 -12.4°
Maximum altitude 00:44:46 36° 332° (NNW) 709 4.3 -7.1°
